Regional Weather Roundup
Issued by NWS Wilmington, NC

Home | Current Version | Previous Version | Text Only | Print | Product List | Glossary On
Versions: 1 2 3 4 5 6 7 8 9 10 11 12 13 14 15 16 17 18 19 20 21 22 23 24 25 26 27 28 29 30 31 32 33 34 35 36 37 38 39 40 41 42 43 44 45 46 47 48 49 50
000
ASUS42 KILM 262210
RWRILM
RWRILM
REGIONAL HOURLY WEATHER ROUNDUP
NATIONAL WEATHER SERVICE WILMINGTON NC
500 PM EST MON JAN 26 2015

NOTE: "FAIR" INDICATES FEW OR NO CLOUDS BELOW 12,000 FEET WITH NO
SIGNIFICANT WEATHER AND/OR OBSTRUCTIONS TO VISIBILITY.

...............WFO WILMINGTON COUNTY WARNING AREA...............

......COASTAL NC AND SC COUNTIES......

CITY           SKY/WX    TMP DP  RH WIND       PRES   REMARKS
WILMINGTON     CLOUDY    54  42  64 NW12      29.57R
SOUTHPORT      MOCLDY    55  43  63 W9        29.56S
N MYRTLE BEACH LGT RAIN  50  44  80 NW13G21   29.60R
MYRTLE BEACH   CLOUDY    55  39  54 W13       29.62R

......INLAND NC AND SC COUNTIES.......

CITY           SKY/WX    TMP DP  RH WIND       PRES   REMARKS
LUMBERTON      CLOUDY    50  45  83 NW7       29.61R
ELIZABETHTOWN  CLOUDY    50  42  72 NW7       29.60R
WHITEVILLE     CLOUDY    50  45  82 W5        29.59R
FLORENCE       CLOUDY    53  39  59 NW9       29.63R
DARLINGTON     CLOUDY    52  37  58 NW12      29.65R

....................REST OF NORTH CAROLINA......................

.........EASTERN NC.........

CITY           SKY/WX    TMP DP  RH WIND       PRES   REMARKS
CAPE HATTERAS  CLOUDY    49  46  90 NW8       29.51F
JACKSONVILLE   MOCLDY    52  39  62 NW7       29.57R
MOREHEAD CITY  PTCLDY    51  43  74 NW13      29.54R
KENANSVILLE    MOCLDY    48  43  83 NW7       29.59R
NEW BERN       CLOUDY    53  41  63 NW6       29.56R
ELIZABETH CITY CLOUDY    47  42  83 NW15      29.54S

.........CENTRAL NC.........

CITY           SKY/WX    TMP DP  RH WIND       PRES   REMARKS
RALEIGH DURHAM MOCLDY    47  40  76 N3        29.61R
ROCKY MOUNT    CLOUDY    49  41  74 NW9       29.59R
ROANOKE RAPIDS NOT AVBL
FAYETTEVILLE   CLOUDY    49  42  77 NW8       29.60R
HOFFMAN        MOCLDY    48  43  83 W5        29.64R

.........WESTERN NC.........

CITY           SKY/WX    TMP DP  RH WIND       PRES   REMARKS
CHARLOTTE      MOCLDY    49  37  63 NE7       29.64R
GREENSBORO     MOCLDY    45  37  73 N3        29.62R
HICKORY        NOT AVBL
BOONE          NOT AVBL
ASHEVILLE      NOT AVBL

.....................REST OF SOUTH CAROLINA.....................

.........EASTERN SC.........

CITY           SKY/WX    TMP DP  RH WIND       PRES   REMARKS
CHARLESTON     MOCLDY    56  39  53 W9G18     29.66R
BEAUFORT MCAS  MOCLDY    54  37  52 W18G29    29.71R
HILTON HEAD    MOCLDY    55  39  54 SW13G25   29.72S

.........CENTRAL SC.........

CITY           SKY/WX    TMP DP  RH WIND       PRES   REMARKS
COLUMBIA       MOCLDY    54  39  57 NW3       29.66R
ORANGEBURG     CLOUDY    57  33  40 W14G28    29.65R
SUMTER SHAW    CLOUDY    54  37  52 NW8       29.63R

.........WESTERN SC.........

CITY           SKY/WX    TMP DP  RH WIND       PRES   REMARKS
GREENVILLE     NOT AVBL
ROCK HILL      MOCLDY    53  33  46 NW6       29.64R
ANDERSON       CLEAR     48  28  46 NW18      29.73R
CLEMSON        NOT AVBL
GREENWOOD      PTCLDY    51  32  48 W14G22    29.72R


...................COASTAL AND OFFSHORE REPORTS..................

................LOCAL PIERS AND NC RESERVE................


STATION/POSITION TIME  SKY/WX   TEMP    WIND        PRES    VSBY
                                AIR SEA DIR/SP/G
                 (UTC)          (F)     (DEG/KT/KT) (MB)    (MI)
JOHNY MRCER PIER 2200            55 54  310/  9/ 12 1000.0R
NC RESRV MASNBRO NOT AVBL
OCEAN CREST PIER 2200            54 53  230/ 15/ 17 1000.1R
SPRINGMAID  PIER 2200            55 50  260/  9/ 12 1002.0R


................COASTAL AND OFFSHORE BUOYS................


STATION/POSITION TIME  SKY/WX   TEMP    WIND        PRES    VSBY
                                AIR SEA DIR/SP/G
                 (UTC)          (F)     (DEG/KT/KT) (MB)    (MI)
DIMNDSHOAL 41025 2200            55 71  310/ 12/ 16  998.6F
WVE H/P(F/S)=  3/ 6 WND WVE H/P(F/S)=  2/ 4 SWL H/P/D(F/S/D)=  3/180/ 6

CAPE LOOKOUT     2100            51     290/  7/  8  999.8R
ONSLOW BAY 41036 NOT AVBL
5 WRITEBCH 41038 2100            56 52  280/  4/  6 1000.5R
MASONBORO  41110 2200               52                N/A
WVE H/P(F/S)=  3/ 7 WND WVE H/P(F/S)=  3/ 7

WILM HARBR 41108 2200               54                N/A
WVE H/P(F/S)=  4/ 7 WND WVE H/P(F/S)=  5/ 7

27WRITEBCH 41037 NOT AVBL
FRYING PAN 41013 2200            57 67  270/ 17/ 21 1001.4S
WVE H/P(F/S)=  5/ 7 WND WVE H/P(F/S)=  3/ 6 SWL H/P/D(F/S/D)=  3/190/ 7

SUNST NRSH 41024 2100            54     290/  6/  8   N/A
CAPRS NRSH 41029 2100            55     290/ 14/ 16   N/A
EDISTO     41004 2200            57 68  270/ 23/ 31 1003.0R
WVE H/P(F/S)=  7/ 7 WND WVE H/P(F/S)=  7/ 7 SWL H/P/D(F/S/D)=  2/13



..........OFFSHORE BUOYS BEYOND 100 NM OFFSHORE...........
.....IN A TRIANGLE---HAT TO BERMUDA TO BAHAMAS TO HAT.....


STATION/POSITION TIME  SKY/WX   TEMP    WIND        PRES    VSBY
                                AIR SEA DIR/SP/G
                 (UTC)          (F)     (DEG/KT/KT) (MB)    (MI)
150E HAT   41001 NOT AVBL
W BERMUDA  41048 2106            71 72  180/ 25/ 31 1000.7
WVE H/P(F/S)=  8/ 6 WND WVE H/P(F/S)=  7/ 6 SWL H/P/D(F/S/D)=  2/350/13

ATLANTIC S 41049 2122            75 76  180/ 19/ 23 1014.0F
WVE H/P(F/S)=  6/11 WND WVE H/P(F/S)=  5/ 5 SWL H/P/D(F/S/D)=  3/310/11

E BAHAMAS  41046 2053            78 79  180/ 19/ 23 1012.8
WVE H/P(F/S)=  6/10 WND WVE H/P(F/S)=  5/ 5 SWL H/P/D(F/S/D)=  3/320/10

NE BAHAMAS 41047 2124            73 76  250/ 23/ 29 1007.1F
WVE H/P(F/S)=  8/ 6 WND WVE H/P(F/S)=  8/ 6

120E CANVRL41010 2200            66 76  280/ 27/ 33 1007.3R
WVE H/P(F/S)= 13/ 8 WND WVE H/P(F/S)= 13/ 8


END



USA.gov is the U.S. government's official web portal to all federal, state and local government web resources and services.